Weather History for Andrews, NC

Change the Weather History Date:

Monday, February 11, 2013

  Actual Average (KTYS) Record (KTYS)
Temperature  
Mean Temperature 46 °F 41 °F  
Max Temperature 54 °F 51 °F 76 °F (1932)
Min Temperature 37 °F 32 °F 1 °F (1885)
Degree Days  
Heating Degree Days 19 24  
Month to date heating degree days 272  
Since 1 July heating degree days 2534  
Cooling Degree Days 0 0  
Month to date cooling degree days 0  
Year to date cooling degree days 0  
Moisture  
Dew Point 46 °F    
Average Humidity 90    
Maximum Humidity 100    
Minimum Humidity 61    
Precipitation  
Precipitation 0.07 in 0.15 in 2.15 in (1873)
Month to date precipitation 1.66  
Year to date precipitation 5.98  
Snow  
Snow 0.00 in 0.10 in - ()
Month to date snowfall 0.8  
Since 1 July snowfall 4.3  
Snow Depth -    
Sea Level Pressure  
Sea Level Pressure 30.08 in    
Wind  
Wind Speed 4 mph (WSW)    
Max Wind Speed 12 mph    
Max Gust Speed 18 mph    
Visibility 9 miles    
Events Rain    
T = Trace of Precipitation, MM = Missing Value Source: NWS Daily Summary

Daily Weather History Graph

Daily Weather History Graph

Search for Another Location

Airport:

Trip Planner

Search our weather history database for the weather conditions in past years. The results will help you decide how hot, cold, wet, or windy it might be!

Date:

Astronomy

Feb. 11, 2013 Rise Set
Actual Time 7:25 AM EST 6:14 PM EST
Civil Twilight 6:59 AM EST 6:40 PM EST
Nautical Twilight 6:29 AM EST 7:10 PM EST
Astronomical Twilight 5:59 AM EST 7:39 PM EST
Moon 7:54 AM EST (2/11) 8:03 PM EST (2/11)
Length of Visible Light 11h 41m
Length of Day
10h 48m
Waxing Crescent, 3% of the Moon is Illuminated
Feb 11
Waxing Crescent
Feb 17
First Quarter
Feb 25
Full
Mar 4
Last Quarter
Mar 11
New

Hourly Weather History & Observations

Time (EST) Temp. Windchill Dew Point Humidity Pressure Visibility Wind Dir Wind Speed Gust Speed Precip Events Conditions
12:15 AM 54.1 °F - 48.2 °F 80% 30.09 in 10.0 mi West 10.4 mph 17.3 mph N/A   Overcast
12:35 AM 54.0 °F - 48.2 °F 81% 30.08 in 10.0 mi WNW 6.9 mph - N/A Rain Rain
12:55 AM 53.4 °F - 48.2 °F 82% 30.08 in 10.0 mi West 4.6 mph - 0.01 in Rain Light Rain
1:15 AM 53.4 °F - 48.4 °F 83% 30.08 in 10.0 mi SW 6.9 mph - N/A Rain Light Rain
1:35 AM 51.8 °F - 49.1 °F 90% 30.07 in 10.0 mi WSW 4.6 mph - 0.01 in Rain Light Rain
1:55 AM 53.1 °F - 48.4 °F 84% 30.04 in 10.0 mi South 3.5 mph - 0.01 in Rain Rain
2:15 AM 51.8 °F - 48.9 °F 90% 30.05 in 10.0 mi SW 5.8 mph 17.3 mph N/A   Mostly Cloudy
2:35 AM 52.9 °F - 48.6 °F 85% 30.05 in 10.0 mi WNW 4.6 mph - N/A Rain Light Rain
2:55 AM 51.4 °F - 49.1 °F 92% 30.06 in 10.0 mi West 6.9 mph - N/A Rain Light Rain
3:15 AM 51.3 °F - 49.1 °F 92% 30.06 in 10.0 mi NW 5.8 mph - N/A Rain Light Rain
3:35 AM 50.9 °F - 49.3 °F 94% 30.05 in 10.0 mi Calm Calm - 0.01 in Rain Light Rain
3:55 AM 50.5 °F - 49.3 °F 95% 30.06 in 3.0 mi WSW 3.5 mph - 0.03 in Rain Rain
4:15 AM 50.0 °F - 49.1 °F 97% 30.07 in 10.0 mi Calm Calm - N/A Rain Light Rain
4:35 AM 50.2 °F - 49.1 °F 96% 30.08 in 10.0 mi Calm Calm - N/A   Drizzle
4:55 AM 50.0 °F - 49.5 °F 98% 30.07 in 10.0 mi Calm Calm - 0.01 in Rain Light Rain
5:15 AM 49.8 °F - 49.3 °F 98% 30.06 in 10.0 mi Calm Calm - N/A Rain Light Rain
5:35 AM 49.5 °F - 49.3 °F 99% 30.04 in 10.0 mi NE 4.6 mph - N/A Rain Rain
5:55 AM 49.5 °F - 49.3 °F 99% 30.04 in 10.0 mi Calm Calm - N/A   Overcast
6:15 AM 49.6 °F - 49.3 °F 99% 30.05 in 10.0 mi Calm Calm - N/A   Overcast
6:55 AM 49.3 °F - 49.1 °F 99% 30.05 in 4.0 mi Calm Calm - 0.01 in Rain Rain
7:15 AM 49.3 °F - 49.1 °F 99% 30.06 in 4.0 mi Calm Calm - N/A   Light Drizzle
7:35 AM 49.5 °F - 49.3 °F 99% 30.06 in 5.0 mi Calm Calm - N/A   Overcast
7:55 AM 49.5 °F - 49.3 °F 99% 30.07 in 5.0 mi Calm Calm - N/A   Overcast
8:15 AM 49.1 °F - 49.1 °F 100% 30.07 in 1.2 mi Calm Calm - N/A   Drizzle
8:35 AM 49.5 °F - 49.3 °F 99% 30.07 in 1.2 mi Calm Calm - N/A   Overcast
8:55 AM 49.5 °F - 49.3 °F 99% 30.06 in 1.0 mi Calm Calm - N/A   Drizzle
9:15 AM 49.6 °F - 49.6 °F 100% 30.07 in 1.8 mi Calm Calm - N/A   Drizzle
9:35 AM 50.0 °F - 50.0 °F 100% 30.08 in 1.8 mi Calm Calm - N/A   Drizzle
9:55 AM 50.2 °F - 50.0 °F 99% 30.07 in 1.2 mi Calm Calm - N/A   Drizzle
10:15 AM 50.9 °F - 50.7 °F 99% 30.08 in 1.5 mi WSW 4.6 mph - N/A   Drizzle
10:35 AM 52.3 °F - 52.0 °F 99% 30.09 in 5.0 mi West 3.5 mph - N/A   Overcast
10:55 AM 53.6 °F - 51.4 °F 92% 30.10 in 10.0 mi WSW 8.1 mph 18.4 mph N/A   Overcast
11:15 AM 53.6 °F - 50.4 °F 89% 30.11 in 10.0 mi SW 11.5 mph - N/A   Overcast
11:35 AM 54.0 °F - 50.0 °F 86% 30.08 in 10.0 mi SW 5.8 mph - N/A   Overcast
11:55 AM 54.1 °F - 49.6 °F 85% 30.08 in 10.0 mi South 6.9 mph - N/A   Overcast
12:15 PM 54.3 °F - 49.5 °F 84% 30.08 in 10.0 mi Calm Calm - N/A   Overcast
12:35 PM 54.5 °F - 49.3 °F 83% 30.07 in 10.0 mi NW 3.5 mph - N/A   Overcast
12:55 PM 54.3 °F - 49.1 °F 83% 30.11 in 10.0 mi SW 8.1 mph - N/A   Overcast
1:15 PM 54.0 °F - 49.1 °F 84% 30.10 in 10.0 mi SW 8.1 mph - N/A   Overcast
1:35 PM 54.0 °F - 49.3 °F 84% 30.09 in 10.0 mi SSW 5.8 mph - N/A   Mostly Cloudy
1:55 PM 54.5 °F - 49.3 °F 83% 30.08 in 10.0 mi SSW 6.9 mph - N/A   Clear
2:15 PM 54.9 °F - 49.3 °F 81% 30.07 in 10.0 mi SW 5.8 mph - N/A   Clear
2:35 PM 54.5 °F - 46.6 °F 75% 30.06 in 10.0 mi SW 9.2 mph - N/A   Clear
2:55 PM 54.5 °F - 46.4 °F 74% 30.08 in 10.0 mi SW 5.8 mph - N/A   Scattered Clouds
3:15 PM 54.1 °F - 44.1 °F 69% 30.07 in 10.0 mi SW 6.9 mph - N/A   Scattered Clouds
3:35 PM 54.5 °F - 46.0 °F 73% 30.06 in 10.0 mi West 5.8 mph - N/A   Clear
3:55 PM 54.5 °F - 41.9 °F 62% 30.07 in 10.0 mi SW 9.2 mph - N/A   Clear
4:15 PM 53.8 °F - 40.6 °F 61% 30.07 in 10.0 mi SW 10.4 mph - N/A   Clear
4:35 PM 52.9 °F - 41.2 °F 64% 30.08 in 10.0 mi SW 9.2 mph - N/A   Clear
4:55 PM 52.7 °F - 40.3 °F 63% 30.07 in 10.0 mi SSW 6.9 mph - N/A   Clear
5:55 PM 49.3 °F - 43.3 °F 80% 30.07 in 10.0 mi Calm Calm - N/A   Clear
6:15 PM 48.2 °F - 43.7 °F 84% 30.07 in 10.0 mi Calm Calm - N/A   Clear
6:35 PM 45.1 °F - 42.8 °F 91% 30.08 in 10.0 mi Calm Calm - N/A   Clear
6:55 PM 43.7 °F 42.1 °F 41.4 °F 91% 30.09 in 10.0 mi East 3.5 mph - N/A   Clear
7:15 PM 42.6 °F - 41.2 °F 95% 30.08 in 10.0 mi Calm Calm - N/A   Clear
7:35 PM 43.3 °F - 40.8 °F 91% 30.08 in 10.0 mi Calm Calm - N/A   Clear
7:55 PM 40.6 °F - 39.2 °F 95% 30.09 in 10.0 mi Calm Calm - N/A   Clear
8:15 PM 41.0 °F - 39.7 °F 95% 30.10 in 10.0 mi Calm Calm - N/A   Clear
8:35 PM 39.0 °F - 37.9 °F 96% 30.10 in 10.0 mi Calm Calm - N/A   Clear
8:55 PM 39.6 °F - 38.5 °F 96% 30.10 in 10.0 mi Calm Calm - N/A   Clear
9:15 PM 38.5 °F - 37.6 °F 97% 30.11 in 10.0 mi Calm Calm - N/A   Clear
9:35 PM 38.5 °F - 38.3 °F 99% 30.10 in 10.0 mi Calm Calm - N/A   Clear
9:55 PM 39.4 °F - 38.5 °F 97% 30.10 in 10.0 mi Calm Calm - N/A   Clear
10:15 PM 39.2 °F - 38.3 °F 97% 30.11 in 10.0 mi Calm Calm - N/A   Clear
10:35 PM 38.7 °F - 37.9 °F 97% 30.09 in 10.0 mi Calm Calm - N/A   Clear
10:55 PM 38.8 °F - 38.3 °F 98% 30.08 in 10.0 mi Calm Calm - N/A   Clear
11:15 PM 38.3 °F 34.8 °F 37.8 °F 98% 30.11 in 10.0 mi West 4.6 mph - N/A   Clear
11:35 PM 38.5 °F - 38.1 °F 99% 30.11 in 10.0 mi Calm Calm - N/A   Clear
11:55 PM 37.4 °F 33.8 °F 37.0 °F 99% 30.09 in 10.0 mi NE 4.6 mph - N/A   Clear